User: anonymous   Login
Location: Kraków
(50.0647°N, 19.9450°E)
Time: 16:28:07
(UTC+02:00)
Language:

ISS - Orbit

View from above orbital plane
View from above orbital plane
View from above satellite
View from above satellite

Ground track
Ground track

The orbit data is extracted from the following two-line orbital elements,

1 25544U 98067A   20100.64637517  .00016717  00000-0  10270-3 0  9021
2 25544  51.6402 327.6548 0003667  99.6164 260.5400 15.48653212 21380
Epoch (UTC): 09 April 2020 15:30:46
Eccentricity: 0.0003667
inclination: 51.6402°
perigee height: 418 km
apogee height: 423 km
right ascension of ascending node: 327.6548°
argument of perigee: 99.6164°
revolutions per day: 15.48653212
mean anomaly at epoch: 260.5400°
orbit number at epoch: 2138

The dashed part of the orbit path shows where the satellite is in the earth's shadow,  

DLR